| time (UTC) | temp C | wind direction | speed KPH | gust KPH | rain 1hr cm | rain 24hr cm | rain mn cm | humidity % | barometer mb |
| 20260507060621 | 5 | 255 | 4.8 | 8.0 | 0.00 | 0.05 | 0.00 | 100 | |
| 20260507060124 | 5 | 250 | 3.2 | 6.4 | 0.00 | 0.05 | 0.00 | 100 | |
| 20260507055802 | 5 | 282 | 3.2 | 4.8 | 0.00 | 0.18 | 0.00 | 100 | |
| 20260507055625 | 5 | 282 | 3.2 | 4.8 | 0.00 | 0.18 | 0.00 | 100 | |
| 20260507055121 | 5 | 270 | 1.6 | 4.8 | 0.00 | 0.18 | 0.00 | 100 | |
| 20260507054623 | 5 | 274 | 3.2 | 8.0 | 0.00 | 0.18 | 0.00 | 100 | |
| 20260507054121 | 5 | 278 | 3.2 | 6.4 | 0.00 | 0.18 | 0.00 | 100 | |
| 20260507053621 | 5 | 277 | 3.2 | 6.4 | 0.00 | 0.18 | 0.00 | 100 | |
| 20260507053121 | 5 | 270 | 3.2 | 4.8 | 0.00 | 0.18 | 0.00 | 100 | |
| 20260507052621 | 5 | 265 | 3.2 | 6.4 | 0.00 | 0.18 | 0.00 | 100 | |
| 20260507052123 | 5 | 262 | 6.4 | 6.4 | 0.00 | 0.18 | 0.00 | 100 | |
| 20260507051626 | 6 | 265 | 3.2 | 6.4 | 0.00 | 0.18 | 0.00 | 100 | |
| 20260507051121 | 6 | 251 | 1.6 | 8.0 | 0.00 | 0.18 | 0.00 | 100 | |
| 20260507050621 | 5 | 261 | 3.2 | 4.8 | 0.00 | 0.18 | 0.00 | 100 | |
| 20260507050121 | 5 | 274 | 0.0 | 0.0 | 0.00 | 0.18 | 0.00 | 100 | |
| 20260507045621 | 5 | 274 | 0.0 | 0.0 | 0.00 | 0.38 | 0.00 | 100 | |
| 20260507045121 | 5 | 274 | 0.0 | 0.0 | 0.00 | 0.38 | 0.00 | 100 | |
| 20260507044621 | 5 | 274 | 0.0 | 0.0 | 0.00 | 0.38 | 0.00 | 100 | |
| 20260507044121 | 5 | 274 | 0.0 | 0.0 | 0.00 | 0.38 | 0.00 | 100 | |
| 20260507043621 | 5 | 274 | 0.0 | 0.0 | 0.00 | 0.38 | 0.00 | 100 | |
| 20260507043121 | 5 | 274 | 0.0 | 0.0 | 0.00 | 0.38 | 0.00 | 100 | |
| 20260507042622 | 5 | 274 | 0.0 | 0.0 | 0.00 | 0.38 | 0.00 | 100 | |
| 20260507042121 | 5 | 274 | 0.0 | 0.0 | 0.00 | 0.38 | 0.00 | 100 | |
| 20260507041624 | 5 | 274 | 0.0 | 0.0 | 0.00 | 0.38 | 0.00 | 100 | |
| 20260507041121 | 5 | 274 | 0.0 | 0.0 | 0.00 | 0.38 | 0.00 | 100 | |
| 20260507040621 | 5 | 274 | 0.0 | 0.0 | 0.00 | 0.38 | 0.00 | 100 | |
| 20260507040501 | 5 | 274 | 0.0 | 0.0 | 0.00 | 0.38 | 0.00 | 100 | |
| 20260507040121 | 5 | 274 | 0.0 | 0.0 | 0.00 | 0.38 | 0.00 | 100 | |
| 20260507035625 | 4 | 274 | 0.0 | 0.0 | 0.00 | 0.56 | 0.53 | 100 | |
| 20260507035121 | 4 | 274 | 0.0 | 0.0 | 0.00 | 0.56 | 0.53 | 100 | |
| 20260507034621 | 4 | 274 | 0.0 | 0.0 | 0.00 | 0.56 | 0.53 | 100 | |
| 20260507034121 | 4 | 274 | 0.0 | 0.0 | 0.00 | 0.56 | 0.53 | 100 | |
| 20260507033621 | 4 | 274 | 0.0 | 0.0 | 0.00 | 0.56 | 0.53 | 100 | |
| 20260507033122 | 4 | 274 | 0.0 | 0.0 | 0.00 | 0.56 | 0.53 | 100 | |
| 20260507032621 | 5 | 274 | 0.0 | 0.0 | 0.00 | 0.56 | 0.53 | 100 | |
| 20260507032121 | 5 | 274 | 0.0 | 0.0 | 0.00 | 0.56 | 0.53 | 100 | |
| 20260507031621 | 5 | 274 | 0.0 | 0.0 | 0.00 | 0.56 | 0.53 | 100 | |
| 20260507031121 | 5 | 274 | 0.0 | 0.0 | 0.00 | 0.56 | 0.53 | 100 | |
| 20260507030621 | 5 | 274 | 0.0 | 0.0 | 0.00 | 0.56 | 0.53 | 100 | |
| 20260507030121 | 5 | 274 | 0.0 | 0.0 | 0.00 | 0.56 | 0.53 | 100 | |
| 20260507025621 | 5 | 274 | 0.0 | 0.0 | 0.00 | 0.81 | 0.53 | 100 | |
| 20260507025121 | 5 | 274 | 0.0 | 0.0 | 0.00 | 0.81 | 0.53 | 100 | |
| 20260507024621 | 5 | 274 | 0.0 | 0.0 | 0.00 | 0.81 | 0.53 | 100 | |
| 20260507024121 | 5 | 274 | 0.0 | 0.0 | 0.00 | 0.81 | 0.53 | 100 | |
| 20260507023621 | 5 | 274 | 0.0 | 0.0 | 0.00 | 0.81 | 0.53 | 100 | |
| 20260507023122 | 5 | 274 | 0.0 | 0.0 | 0.00 | 0.81 | 0.53 | 100 | |
| 20260507022622 | 5 | 274 | 0.0 | 0.0 | 0.00 | 0.81 | 0.53 | 100 | |
| 20260507022121 | 6 | 274 | 0.0 | 0.0 | 0.00 | 0.81 | 0.53 | 100 | |
| 20260507021621 | 6 | 274 | 0.0 | 0.0 | 0.00 | 0.81 | 0.53 | 100 | |
| 20260507021121 | 6 | 274 | 0.0 | 0.0 | 0.00 | 0.81 | 0.53 | 100 | |
| 20260507020720 | 6 | 274 | 0.0 | 0.0 | 0.00 | 0.81 | 0.53 | 100 | |
| 20260507020621 | 6 | 274 | 0.0 | 0.0 | 0.00 | 0.81 | 0.53 | 100 | |
| 20260507020121 | 6 | 274 | 0.0 | 0.0 | 0.00 | 0.81 | 0.53 | 100 | |
| 20260507015621 | 6 | 274 | 0.0 | 0.0 | 0.00 | 1.12 | 0.53 | 100 | |
| 20260507015121 | 6 | 274 | 0.0 | 0.0 | 0.00 | 1.12 | 0.53 | 100 | |
| 20260507014621 | 6 | 274 | 0.0 | 0.0 | 0.00 | 1.12 | 0.53 | 100 | |
| 20260507014123 | 6 | 274 | 0.0 | 0.0 | 0.00 | 1.12 | 0.53 | 100 | |
| 20260507013621 | 6 | 274 | 0.0 | 0.0 | 0.00 | 1.12 | 0.53 | 100 | |
| 20260507013121 | 6 | 274 | 0.0 | 0.0 | 0.00 | 1.12 | 0.53 | 100 | |
| 20260507012623 | 6 | 274 | 0.0 | 0.0 | 0.00 | 1.12 | 0.53 | 100 | |
| 20260507012121 | 7 | 274 | 0.0 | 0.0 | 0.00 | 1.12 | 0.53 | 100 | |
| 20260507011621 | 7 | 274 | 0.0 | 0.0 | 0.00 | 1.12 | 0.53 | 100 | |
| 20260507011121 | 7 | 274 | 0.0 | 0.0 | 0.00 | 1.12 | 0.53 | 100 | |
| 20260507010621 | 7 | 274 | 0.0 | 0.0 | 0.00 | 1.12 | 0.53 | 100 | |
| 20260507010121 | 7 | 274 | 0.0 | 0.0 | 0.00 | 1.12 | 0.53 | 100 | |
| 20260507005621 | 7 | 274 | 0.0 | 0.0 | 0.00 | 1.47 | 0.53 | 100 | |
| 20260507005121 | 7 | 274 | 0.0 | 0.0 | 0.00 | 1.47 | 0.53 | 100 | |
| 20260507004621 | 7 | 274 | 0.0 | 0.0 | 0.00 | 1.47 | 0.53 | 100 | |
| 20260507004122 | 8 | 274 | 0.0 | 0.0 | 0.00 | 1.47 | 0.53 | 100 | |
| 20260507003624 | 8 | 274 | 0.0 | 0.0 | 0.00 | 1.47 | 0.53 | 100 | |
| 20260507003122 | 9 | 274 | 0.0 | 0.0 | 0.00 | 1.47 | 0.53 | 100 | |
| 20260507002622 | 10 | 274 | 0.0 | 8.0 | 0.00 | 1.47 | 0.53 | 100 | |
| 20260507002122 | 10 | 322 | 1.6 | 6.4 | 0.00 | 1.47 | 0.53 | 100 | |
| 20260507001622 | 10 | 316 | 3.2 | 6.4 | 0.00 | 1.47 | 0.53 | 100 | |
| 20260507001122 | 10 | 333 | 4.8 | 6.4 | 0.00 | 1.47 | 0.53 | 100 | |
| 20260507000622 | 11 | 333 | 4.8 | 8.0 | 0.00 | 1.47 | 0.53 | 100 | |
| 20260507000122 | 12 | 341 | 6.4 | 8.0 | 0.00 | 1.47 | 0.53 | 100 | |
| 20260506235622 | 13 | 316 | 4.8 | 11.3 | 0.00 | 2.18 | 0.53 | 100 | |
| 20260506235122 | 13 | 358 | 3.2 | 11.3 | 0.00 | 2.18 | 0.53 | 100 | |
| 20260506234622 | 13 | 292 | 8.0 | 12.9 | 0.00 | 2.18 | 0.53 | 100 | |
| 20260506234122 | 13 | 317 | 8.0 | 14.5 | 0.00 | 2.18 | 0.53 | 100 | |
| 20260506233626 | 15 | 322 | 9.7 | 11.3 | 0.00 | 2.18 | 0.53 | 100 | |
| 20260506233122 | 13 | 315 | 3.2 | 11.3 | 0.00 | 2.18 | 0.53 | 100 | |
| 20260506232622 | 12 | 307 | 11.3 | 11.3 | 0.00 | 2.18 | 0.53 | 100 | |
| 20260506232122 | 12 | 286 | 1.6 | 8.0 | 0.00 | 2.18 | 0.53 | 100 | |
| 20260506231622 | 12 | 310 | 0.0 | 11.3 | 0.00 | 2.18 | 0.53 | 100 | |
| 20260506231122 | 12 | 320 | 4.8 | 9.7 | 0.00 | 2.18 | 0.53 | 100 | |
| 20260506230622 | 12 | 316 | 4.8 | 11.3 | 0.00 | 2.18 | 0.53 | 100 | |
| 20260506230122 | 11 | 305 | 6.4 | 9.7 | 0.00 | 2.18 | 0.53 | 100 | |
| 20260506225622 | 11 | 323 | 3.2 | 12.9 | 0.00 | 2.49 | 0.53 | 100 | |
| 20260506225122 | 12 | 296 | 1.6 | 9.7 | 0.00 | 2.49 | 0.53 | 100 | |
| 20260506224623 | 12 | 330 | 4.8 | 12.9 | 0.00 | 2.49 | 0.53 | 100 | |
| 20260506224123 | 12 | 303 | 12.9 | 14.5 | 0.00 | 2.49 | 0.53 | 100 | |
| 20260506223624 | 12 | 306 | 4.8 | 9.7 | 0.00 | 2.49 | 0.53 | 100 | |
| 20260506223122 | 12 | 320 | 4.8 | 16.1 | 0.00 | 2.49 | 0.53 | 100 | |
| 20260506222624 | 12 | 309 | 4.8 | 11.3 | 0.00 | 2.49 | 0.53 | 100 | |
| 20260506222123 | 12 | 317 | 9.7 | 11.3 | 0.00 | 2.49 | 0.53 | 100 | |
| 20260506221626 | 12 | 307 | 4.8 | 14.5 | 0.00 | 2.49 | 0.53 | 100 | |
| 20260506221122 | 12 | 334 | 4.8 | 12.9 | 0.00 | 2.49 | 0.53 | 100 | |
| 20260506220622 | 13 | 322 | 11.3 | 14.5 | 0.00 | 2.49 | 0.53 | 100 | |
| 20260506220122 | 13 | 312 | 4.8 | 16.1 | 0.00 | 2.49 | 0.53 | 100 | |
| 20260506215622 | 13 | 307 | 6.4 | 14.5 | 0.00 | 2.74 | 0.53 | 100 | |
| 20260506215122 | 13 | 319 | 8.0 | 12.9 | 0.00 | 2.74 | 0.53 | 100 | |
| 20260506214622 | 12 | 337 | 6.4 | 14.5 | 0.00 | 2.74 | 0.53 | 100 | |
| 20260506214122 | 12 | 338 | 8.0 | 16.1 | 0.00 | 2.74 | 0.53 | 100 | |
| 20260506213624 | 12 | 316 | 9.7 | 14.5 | 0.00 | 2.74 | 0.53 | 100 | |
| 20260506213122 | 12 | 334 | 8.0 | 14.5 | 0.00 | 2.74 | 0.53 | 100 | |
| 20260506212622 | 12 | 324 | 12.9 | 14.5 | 0.00 | 2.74 | 0.53 | 100 | |
| 20260506212122 | 12 | 302 | 9.7 | 14.5 | 0.00 | 2.74 | 0.53 | 100 | |
| 20260506211622 | 13 | 288 | 11.3 | 14.5 | 0.00 | 2.74 | 0.53 | 100 | |
| 20260506211123 | 13 | 282 | 12.9 | 14.5 | 0.00 | 2.74 | 0.53 | 100 | |
| 20260506210622 | 13 | 303 | 12.9 | 14.5 | 0.00 | 2.74 | 0.53 | 100 | |
| 20260506210122 | 13 | 298 | 6.4 | 14.5 | 0.00 | 2.74 | 0.53 | 100 | |
| 20260506205626 | 14 | 299 | 6.4 | 14.5 | 0.00 | 2.77 | 0.53 | 100 | |
| 20260506205122 | 13 | 296 | 8.0 | 20.9 | 0.00 | 2.77 | 0.53 | 100 | |
| 20260506204622 | 14 | 310 | 9.7 | 14.5 | 0.00 | 2.77 | 0.53 | 100 | |
| 20260506204122 | 15 | 327 | 3.2 | 12.9 | 0.00 | 2.77 | 0.53 | 100 | |
| 20260506203622 | 14 | 348 | 11.3 | 14.5 | 0.00 | 2.77 | 0.53 | 100 | |
| 20260506203122 | 13 | 281 | 6.4 | 12.9 | 0.00 | 2.77 | 0.53 | 100 | |
| 20260506202622 | 13 | 330 | 8.0 | 17.7 | 0.00 | 2.77 | 0.53 | 100 | |
| 20260506202122 | 13 | 348 | 8.0 | 11.3 | 0.00 | 2.77 | 0.53 | 100 | |
| 20260506201622 | 13 | 293 | 9.7 | 12.9 | 0.00 | 2.77 | 0.53 | 100 | |
| 20260506201123 | 14 | 22 | 4.8 | 12.9 | 0.00 | 2.77 | 0.53 | 100 | |
| 20260506200622 | 14 | 313 | 9.7 | 14.5 | 0.00 | 2.77 | 0.53 | 100 | |
| 20260506200123 | 15 | 338 | 8.0 | 11.3 | 0.00 | 2.77 | 0.53 | 100 | |
| 20260506195622 | 15 | 309 | 8.0 | 11.3 | 0.00 | 3.05 | 0.53 | 100 | |
| 20260506195402 | 15 | 52 | 3.2 | 8.0 | 0.00 | 3.05 | 0.53 | 100 | |
| 20260506195123 | 15 | 52 | 3.2 | 8.0 | 0.00 | 3.05 | 0.53 | 100 | |
| 20260506194622 | 15 | 296 | 3.2 | 11.3 | 0.00 | 3.05 | 0.53 | 100 | |
| 20260506194122 | 14 | 16 | 6.4 | 9.7 | 0.00 | 3.05 | 0.53 | 100 | |
| 20260506193622 | 13 | 307 | 0.0 | 11.3 | 0.00 | 3.05 | 0.53 | 100 | |
| 20260506193122 | 13 | 322 | 6.4 | 12.9 | 0.00 | 3.05 | 0.53 | 100 | |
| 20260506192622 | 13 | 306 | 6.4 | 12.9 | 0.00 | 3.05 | 0.53 | 100 | |
| 20260506192122 | 13 | 338 | 3.2 | 11.3 | 0.00 | 3.05 | 0.53 | 100 | |
| 20260506191622 | 13 | 279 | 0.0 | 11.3 | 0.00 | 3.05 | 0.53 | 100 | |
| 20260506191122 | 13 | 296 | 9.7 | 12.9 | 0.00 | 3.05 | 0.53 | 100 | |
| 20260506190622 | 13 | 329 | 4.8 | 14.5 | 0.00 | 3.05 | 0.53 | 100 | |
| 20260506190122 | 13 | 337 | 6.4 | 11.3 | 0.00 | 3.05 | 0.53 | 100 | |
| 20260506185623 | 13 | 310 | 9.7 | 16.1 | 0.00 | 3.28 | 0.53 | 100 | |
| 20260506185122 | 13 | 316 | 4.8 | 12.9 | 0.00 | 3.28 | 0.53 | 100 | |
| 20260506184622 | 13 | 270 | 4.8 | 14.5 | 0.00 | 3.28 | 0.53 | 100 | |
| 20260506184122 | 13 | 285 | 14.5 | 14.5 | 0.00 | 3.28 | 0.53 | 100 | |
| 20260506183622 | 13 | 326 | 3.2 | 12.9 | 0.00 | 3.28 | 0.53 | 100 | |
| 20260506183122 | 14 | 2 | 8.0 | 11.3 | 0.00 | 3.28 | 0.53 | 100 | |
| 20260506182622 | 13 | 327 | 11.3 | 16.1 | 0.00 | 3.28 | 0.53 | 100 | |
| 20260506182123 | 14 | 302 | 11.3 | 12.9 | 0.00 | 3.28 | 0.53 | 100 | |
| 20260506181625 | 14 | 352 | 1.6 | 14.5 | 0.00 | 3.28 | 0.53 | 100 | |
| 20260506181122 | 14 | 286 | 9.7 | 16.1 | 0.00 | 3.28 | 0.53 | 100 | |
| 20260506180122 | 13 | 299 | 9.7 | 14.5 | 0.00 | 3.28 | 0.53 | 100 | |
| 20260506175622 | 13 | 302 | 14.5 | 17.7 | 0.00 | 3.40 | 0.53 | 100 | |
| 20260506175122 | 13 | 32 | 1.6 | 12.9 | 0.00 | 3.40 | 0.53 | 100 | |
| 20260506174622 | 13 | 279 | 4.8 | 12.9 | 0.00 | 3.40 | 0.53 | 100 | |
| 20260506174122 | 13 | 285 | 8.0 | 16.1 | 0.00 | 3.40 | 0.53 | 100 | |
| 20260506173623 | 14 | 292 | 3.2 | 14.5 | 0.00 | 3.40 | 0.53 | 100 | |
| 20260506173122 | 15 | 298 | 8.0 | 11.3 | 0.00 | 3.40 | 0.53 | 100 | |
| 20260506172622 | 16 | 11 | 4.8 | 14.5 | 0.00 | 3.40 | 0.53 | 100 | |
| 20260506172123 | 16 | 313 | 9.7 | 14.5 | 0.00 | 3.40 | 0.53 | 100 | |
| 20260506171623 | 16 | 333 | 11.3 | 16.1 | 0.00 | 3.40 | 0.53 | 100 | |
| 20260506171123 | 16 | 323 | 4.8 | 17.7 | 0.00 | 3.40 | 0.53 | 100 | |
| 20260506170624 | 16 | 341 | 8.0 | 14.5 | 0.00 | 3.40 | 0.53 | 100 | |
| 20260506170125 | 16 | 15 | 8.0 | 19.3 | 0.00 | 3.40 | 0.53 | 100 | |
| 20260506165622 | 18 | 309 | 14.5 | 17.7 | 0.00 | 3.43 | 0.53 | 100 | |
| 20260506165122 | 20 | 341 | 9.7 | 14.5 | 0.00 | 3.43 | 0.53 | 100 | |
| 20260506164622 | 18 | 300 | 9.7 | 16.1 | 0.00 | 3.43 | 0.53 | 100 | |
| 20260506164122 | 19 | 344 | 8.0 | 19.3 | 0.00 | 3.43 | 0.53 | 100 | |
| 20260506163622 | 19 | 46 | 4.8 | 17.7 | 0.00 | 3.43 | 0.53 | 100 | |
| 20260506163122 | 17 | 303 | 4.8 | 17.7 | 0.00 | 3.43 | 0.53 | 100 | |
| 20260506162623 | 17 | 302 | 16.1 | 19.3 | 0.00 | 3.43 | 0.53 | 100 | |
| 20260506162122 | 21 | 317 | 1.6 | 11.3 | 0.00 | 3.43 | 0.53 | 100 | |
| 20260506161625 | 17 | 8 | 11.3 | 11.3 | 0.00 | 3.43 | 0.53 | 100 | |
| 20260506161122 | 17 | 310 | 6.4 | 20.9 | 0.00 | 3.43 | 0.53 | 100 | |
| 20260506160623 | 16 | 341 | 17.7 | 17.7 | 0.00 | 3.43 | 0.53 | 100 | |
| 20260506160125 | 19 | 291 | 12.9 | 16.1 | 0.00 | 3.43 | 0.53 | 100 | |
| 20260506155622 | 17 | 323 | 12.9 | 17.7 | 0.00 | 3.43 | 0.53 | 100 | |
| 20260506155122 | 18 | 85 | 3.2 | 14.5 | 0.00 | 3.43 | 0.53 | 100 | |
| 20260506154622 | 15 | 299 | 6.4 | 17.7 | 0.00 | 3.43 | 0.53 | 100 | |
| 20260506154122 | 18 | 295 | 11.3 | 12.9 | 0.00 | 3.43 | 0.53 | 100 | |
| 20260506153623 | 16 | 298 | 12.9 | 20.9 | 0.00 | 3.43 | 0.53 | 100 | |
| 20260506153122 | 17 | 296 | 12.9 | 16.1 | 0.00 | 3.43 | 0.53 | 100 | |
| 20260506152622 | 16 | 300 | 9.7 | 19.3 | 0.00 | 3.43 | 0.53 | 100 | |
| 20260506152122 | 15 | 312 | 11.3 | 16.1 | 0.00 | 3.43 | 0.53 | 100 | |
| 20260506151656 | 15 | 18 | 0.0 | 14.5 | 0.00 | 3.43 | 0.53 | 100 | |
| 20260506151622 | 15 | 18 | 0.0 | 14.5 | 0.00 | 3.43 | 0.53 | 100 | |
| 20260506151122 | 13 | 351 | 0.0 | 14.5 | 0.00 | 3.43 | 0.53 | 100 | |
| 20260506150622 | 13 | 1 | 11.3 | 16.1 | 0.00 | 3.43 | 0.53 | 100 | |
| 20260506150122 | 13 | 289 | 9.7 | 12.9 | 0.00 | 3.43 | 0.53 | 100 | |
| 20260506145622 | 13 | 8 | 1.6 | 12.9 | 0.00 | 3.43 | 0.53 | 100 | |
| 20260506145125 | 13 | 37 | 6.4 | 14.5 | 0.00 | 3.43 | 0.53 | 100 | |
| 20260506144622 | 13 | 296 | 4.8 | 12.9 | 0.00 | 3.43 | 0.53 | 100 | |
| 20260506144123 | 12 | 348 | 6.4 | 12.9 | 0.00 | 3.43 | 0.53 | 100 | |
| 20260506143622 | 13 | 316 | 9.7 | 17.7 | 0.00 | 3.43 | 0.53 | 100 | |
| 20260506143122 | 14 | 334 | 9.7 | 11.3 | 0.00 | 3.43 | 0.53 | 100 | |
| 20260506142622 | 17 | 357 | 0.0 | 14.5 | 0.00 | 3.43 | 0.53 | 100 | |
| 20260506142122 | 17 | 344 | 4.8 | 16.1 | 0.00 | 3.43 | 0.53 | 100 | |
| 20260506141623 | 16 | 358 | 3.2 | 17.7 | 0.00 | 3.43 | 0.53 | 100 | |
| 20260506141123 | 15 | 329 | 9.7 | 17.7 | 0.00 | 3.43 | 0.53 | 100 | |
| 20260506140623 | 16 | 324 | 11.3 | 16.1 | 0.00 | 3.43 | 0.53 | 100 | |
| 20260506140124 | 16 | 319 | 9.7 | 17.7 | 0.00 | 3.43 | 0.53 | 100 | |
| 20260506135623 | 16 | 293 | 6.4 | 17.7 | 0.00 | 3.43 | 0.53 | 100 | |
| 20260506135123 | 17 | 315 | 8.0 | 12.9 | 0.00 | 3.43 | 0.53 | 100 | |
| 20260506134623 | 16 | 286 | 9.7 | 16.1 | 0.00 | 3.43 | 0.53 | 100 | |
| 20260506134123 | 16 | 277 | 6.4 | 12.9 | 0.00 | 3.43 | 0.53 | 100 | |
| 20260506133623 | 13 | 317 | 4.8 | 14.5 | 0.00 | 3.43 | 0.53 | 100 | |
| 20260506133123 | 12 | 319 | 6.4 | 12.9 | 0.00 | 3.43 | 0.53 | 100 | |
| 20260506132623 | 11 | 19 | 6.4 | 14.5 | 0.00 | 3.43 | 0.53 | 100 | |
| 20260506132126 | 11 | 43 | 3.2 | 16.1 | 0.00 | 3.43 | 0.53 | 100 | |
| 20260506131623 | 11 | 317 | 6.4 | 11.3 | 0.00 | 3.43 | 0.53 | 100 | |
| 20260506131123 | 11 | 336 | 6.4 | 12.9 | 0.00 | 3.43 | 0.53 | 100 | |
| 20260506130623 | 12 | 315 | 1.6 | 11.3 | 0.00 | 3.43 | 0.53 | 100 | |
| 20260506130123 | 11 | 320 | 9.7 | 9.7 | 0.00 | 3.43 | 0.53 | 100 | |
| 20260506125624 | 11 | 351 | 3.2 | 12.9 | 0.00 | 3.43 | 0.53 | 100 | |
| 20260506125123 | 9 | 315 | 9.7 | 11.3 | 0.00 | 3.43 | 0.53 | 100 | |
| 20260506124623 | 9 | 316 | 4.8 | 11.3 | 0.00 | 3.43 | 0.53 | 100 | |
| 20260506124123 | 9 | 306 | 11.3 | 11.3 | 0.00 | 3.43 | 0.53 | 100 | |
| 20260506123624 | 8 | 327 | 8.0 | 11.3 | 0.00 | 3.43 | 0.53 | 100 | |
| 20260506123123 | 8 | 329 | 3.2 | 9.7 | 0.00 | 3.43 | 0.53 | 100 | |
| 20260506122623 | 8 | 341 | 3.2 | 6.4 | 0.00 | 3.43 | 0.53 | 100 | |
| 20260506122123 | 8 | 352 | 0.0 | 8.0 | 0.00 | 3.43 | 0.53 | 100 | |
| 20260506121623 | 7 | 277 | 1.6 | 9.7 | 0.00 | 3.43 | 0.53 | 100 | |
| 20260506121123 | 7 | 5 | 1.6 | 11.3 | 0.00 | 3.43 | 0.53 | 100 | |
| 20260506120623 | 7 | 324 | 6.4 | 9.7 | 0.00 | 3.43 | 0.53 | 100 | |
| 20260506120124 | 7 | 15 | 3.2 | 6.4 | 0.00 | 3.43 | 0.53 | 100 | |
| 20260506115623 | 7 | 348 | 4.8 | 9.7 | 0.00 | 3.43 | 0.53 | 100 | |
| 20260506115123 | 7 | 319 | 3.2 | 6.4 | 0.00 | 3.43 | 0.53 | 100 | |
| 20260506114623 | 7 | 330 | 3.2 | 9.7 | 0.00 | 3.43 | 0.53 | 100 | |
| 20260506114123 | 6 | 7 | 3.2 | 4.8 | 0.00 | 3.43 | 0.53 | 100 | |
| 20260506113623 | 6 | 8 | 1.6 | 4.8 | 0.00 | 3.43 | 0.53 | 100 | |
| 20260506113123 | 6 | 347 | 3.2 | 8.0 | 0.00 | 3.43 | 0.53 | 100 | |
| 20260506112623 | 6 | 334 | 0.0 | 6.4 | 0.00 | 3.43 | 0.53 | 100 | |
| 20260506112123 | 6 | 288 | 0.0 | 4.8 | 0.00 | 3.43 | 0.53 | 100 | |
| 20260506111623 | 6 | 306 | 1.6 | 6.4 | 0.00 | 3.43 | 0.53 | 100 | |
| 20260506111124 | 6 | 320 | 0.0 | 4.8 | 0.00 | 3.43 | 0.53 | 100 | |
| 20260506110623 | 6 | 336 | 1.6 | 8.0 | 0.00 | 3.43 | 0.53 | 100 | |
| 20260506110123 | 6 | 337 | 3.2 | 3.2 | 0.00 | 3.43 | 0.53 | 100 | |
| 20260506105623 | 6 | 4 | 0.0 | 8.0 | 0.00 | 3.43 | 0.53 | 100 | |
| 20260506105123 | 6 | 351 | 1.6 | 4.8 | 0.00 | 3.43 | 0.53 | 100 | |
| 20260506104623 | 6 | 354 | 3.2 | 6.4 | 0.00 | 3.43 | 0.53 | 100 | |
| 20260506104123 | 6 | 5 | 3.2 | 6.4 | 0.00 | 3.43 | 0.53 | 100 | |
| 20260506103623 | 6 | 18 | 4.8 | 8.0 | 0.00 | 3.43 | 0.53 | 100 | |
| 20260506103123 | 5 | 343 | 0.0 | 14.5 | 0.00 | 3.43 | 0.53 | 100 | |
| 20260506102623 | 5 | 16 | 11.3 | 11.3 | 0.00 | 3.43 | 0.53 | 100 | |
| 20260506102123 | 5 | 337 | 1.6 | 4.8 | 0.00 | 3.43 | 0.53 | 100 | |
| 20260506101623 | 5 | 18 | 1.6 | 4.8 | 0.00 | 3.43 | 0.53 | 100 | |
| 20260506101123 | 5 | 9 | 0.0 | 12.9 | 0.00 | 3.43 | 0.53 | 100 | |
| 20260506100623 | 5 | 307 | 3.2 | 8.0 | 0.00 | 3.43 | 0.53 | 100 | |
| 20260506100125 | 5 | 9 | 3.2 | 9.7 | 0.00 | 3.43 | 0.53 | 100 | |
| 20260506095623 | 5 | 350 | 0.0 | 11.3 | 0.00 | 3.43 | 0.53 | 100 | |
| 20260506095123 | 5 | 9 | 6.4 | 11.3 | 0.00 | 3.43 | 0.53 | 100 | |
| 20260506094625 | 5 | 347 | 3.2 | 11.3 | 0.00 | 3.43 | 0.53 | 100 | |
| 20260506094123 | 5 | 26 | 4.8 | 12.9 | 0.00 | 3.43 | 0.53 | 100 | |
| 20260506093623 | 5 | 355 | 0.0 | 8.0 | 0.00 | 3.43 | 0.53 | 100 | |
| 20260506093124 | 5 | 16 | 3.2 | 12.9 | 0.00 | 3.43 | 0.53 | 100 | |
| 20260506092623 | 5 | 340 | 8.0 | 12.9 | 0.00 | 3.43 | 0.53 | 100 | |
| 20260506092123 | 5 | 15 | 3.2 | 8.0 | 0.00 | 3.43 | 0.53 | 100 | |
| 20260506091623 | 5 | 352 | 1.6 | 8.0 | 0.00 | 3.43 | 0.53 | 100 | |
| 20260506091126 | 5 | 5 | 4.8 | 8.0 | 0.00 | 3.43 | 0.53 | 100 | |
| 20260506090623 | 5 | 21 | 6.4 | 11.3 | 0.00 | 3.43 | 0.53 | 100 | |
| 20260506090123 | 5 | 25 | 4.8 | 4.8 | 0.03 | 3.43 | 0.53 | 100 | |
| 20260506085623 | 5 | 281 | 1.6 | 6.4 | 0.03 | 3.48 | 0.53 | 100 | |
| 20260506085123 | 5 | 322 | 4.8 | 8.0 | 0.03 | 3.48 | 0.53 | 100 | |
| 20260506084624 | 5 | 341 | 3.2 | 6.4 | 0.03 | 3.48 | 0.53 | 100 | |
| 20260506084125 | 5 | 336 | 3.2 | 8.0 | 0.05 | 3.48 | 0.53 | 100 | |
| 20260506083623 | 5 | 289 | 1.6 | 9.7 | 0.05 | 3.48 | 0.53 | 100 | |
| 20260506083123 | 5 | 11 | 6.4 | 11.3 | 0.05 | 3.48 | 0.53 | 100 | |
| 20260506082623 | 5 | 30 | 11.3 | 14.5 | 0.05 | 3.48 | 0.53 | 100 | |
| 20260506082123 | 5 | 12 | 6.4 | 11.3 | 0.05 | 3.48 | 0.53 | 100 | |
| 20260506081623 | 5 | 5 | 3.2 | 16.1 | 0.05 | 3.48 | 0.53 | 100 | |
| 20260506081123 | 5 | 1 | 14.5 | 14.5 | 0.05 | 3.48 | 0.53 | 100 | |
| 20260506080623 | 5 | 358 | 3.2 | 8.0 | 0.05 | 3.48 | 0.53 | 100 | |
| 20260506080125 | 5 | 19 | 4.8 | 12.9 | 0.03 | 3.45 | 0.51 | 100 | |
| 20260506073125 | 6 | 35 | 8.0 | 17.7 | 0.00 | 3.76 | 0.48 | 100 | |
| 20260506072623 | 6 | 15 | 14.5 | 16.1 | 0.03 | 3.76 | 0.48 | 100 | |
| 20260506072123 | 5 | 56 | 9.7 | 16.1 | 0.03 | 3.76 | 0.48 | 100 | |
| 20260506071623 | 5 | 14 | 6.4 | 17.7 | 0.05 | 3.76 | 0.48 | 100 | |
| 20260506071123 | 5 | 26 | 4.8 | 17.7 | 0.08 | 3.76 | 0.48 | 100 | |
| 20260506070623 | 5 | 4 | 11.3 | 14.5 | 0.10 | 3.76 | 0.48 | 100 | |
| 20260506070123 | 6 | 323 | 6.4 | 8.0 | 0.13 | 3.76 | 0.48 | 100 | |
| 20260506062123 | 5 | 9 | 4.8 | 11.3 | 0.18 | 3.73 | 0.46 | 100 | |
| 20260506061623 | 5 | 11 | 3.2 | 8.0 | 0.18 | 3.71 | 0.43 | 100 | |
| 20260506061123 | 5 | 36 | 4.8 | 12.9 | 0.18 | 3.68 | 0.41 | 100 |